| time (UTC) | temp F | wind direction | speed MPH | gust MPH | rain 1hr in | rain 24hr in | rain mn in | humidity % | barometer mb |
| 20260505002338 | 59 | 180 | 2.0 | 7.0 | 0.00 | 0.00 | 0.00 | 68 | 969.4 |
| 20260505001359 | 59 | 234 | 2.0 | 9.0 | 0.00 | 0.00 | 0.00 | 67 | 969.3 |
| 20260505000406 | 59 | 175 | 3.0 | 9.0 | 0.00 | 0.00 | 0.00 | 67 | 969.3 |
| 20260504235344 | 60 | 219 | 2.0 | 8.0 | 0.00 | 0.00 | 0.00 | 66 | 969.3 |
| 20260504234358 | 60 | 184 | 2.0 | 7.0 | 0.00 | 0.00 | 0.00 | 66 | 969.1 |
| 20260504233327 | 61 | 205 | 2.0 | 6.0 | 0.00 | 0.00 | 0.00 | 66 | 969.2 |
| 20260504232332 | 60 | 163 | 1.0 | 9.0 | 0.00 | 0.00 | 0.00 | 66 | 969.1 |
| 20260504231335 | 60 | 190 | 2.0 | 9.0 | 0.00 | 0.00 | 0.00 | 67 | 969.2 |
| 20260504230324 | 60 | 192 | 1.0 | 8.0 | 0.00 | 0.00 | 0.00 | 67 | 969.4 |
| 20260504225319 | 60 | 225 | 2.0 | 11.0 | 0.00 | 0.00 | 0.00 | 68 | 969.5 |
| 20260504222044 | 60 | 211 | 4.0 | 11.0 | 0.00 | 0.00 | 0.00 | 67 | 969.8 |
| 20260504221022 | 60 | 190 | 3.0 | 17.0 | 0.00 | 0.00 | 0.00 | 67 | 969.9 |
| 20260504215957 | 60 | 234 | 4.0 | 17.0 | 0.00 | 0.00 | 0.00 | 66 | 970.1 |
| 20260504213819 | 59 | 174 | 3.0 | 14.0 | 0.00 | 0.00 | 0.00 | 66 | 970.5 |
| 20260504212827 | 60 | 261 | 3.0 | 14.0 | 0.00 | 0.00 | 0.00 | 64 | 970.3 |
| 20260504211841 | 60 | 224 | 4.0 | 13.0 | 0.00 | 0.00 | 0.00 | 66 | 970.4 |
| 20260504210842 | 60 | 184 | 3.0 | 11.0 | 0.00 | 0.00 | 0.00 | 64 | 970.5 |
| 20260504203523 | 62 | 176 | 3.0 | 11.0 | 0.00 | 0.00 | 0.00 | 57 | 970.4 |
| 20260504202547 | 62 | 205 | 3.0 | 11.0 | 0.00 | 0.00 | 0.00 | 56 | 970.2 |
| 20260504201547 | 62 | 227 | 3.0 | 14.0 | 0.00 | 0.00 | 0.00 | 56 | 970.2 |
| 20260504194356 | 61 | 279 | 2.0 | 15.0 | 0.00 | 0.00 | 0.00 | 58 | 970.3 |
| 20260504193406 | 60 | 234 | 3.0 | 15.0 | 0.00 | 0.00 | 0.00 | 61 | 970.3 |
| 20260504192336 | 60 | 200 | 3.0 | 8.0 | 0.00 | 0.00 | 0.00 | 62 | 970.5 |
| 20260504190232 | 61 | 219 | 1.0 | 8.0 | 0.00 | 0.00 | 0.00 | 60 | 970.5 |
| 20260504184143 | 60 | 232 | 2.0 | 8.0 | 0.00 | 0.00 | 0.00 | 62 | 970.6 |
| 20260504182049 | 58 | 189 | 0.0 | 4.0 | 0.00 | 0.00 | 0.00 | 66 | 970.7 |
| 20260504181027 | 57 | 190 | 0.0 | 4.0 | 0.00 | 0.00 | 0.00 | 67 | 970.8 |
| 20260504175955 | 57 | 204 | 1.0 | 5.0 | 0.00 | 0.00 | 0.00 | 69 | 970.8 |
| 20260504175000 | 57 | 186 | 1.0 | 5.0 | 0.00 | 0.00 | 0.00 | 70 | 970.7 |
| 20260504174016 | 58 | 209 | 0.0 | 5.0 | 0.00 | 0.00 | 0.00 | 70 | 970.7 |
| 20260504173016 | 58 | 150 | 0.0 | 4.0 | 0.00 | 0.00 | 0.00 | 70 | 970.5 |
| 20260504172002 | 59 | 191 | 0.0 | 2.0 | 0.00 | 0.00 | 0.00 | 69 | 970.4 |
| 20260504171011 | 59 | 175 | 0.0 | 3.0 | 0.00 | 0.00 | 0.00 | 68 | 970.3 |
| 20260504140540 | 53 | 221 | 0.0 | 0.0 | 0.00 | 0.00 | 0.00 | 87 | 969.6 |
| 20260504130533 | 53 | 225 | 0.0 | 0.0 | 0.00 | 0.00 | 0.00 | 85 | 969.4 |
| 20260504110236 | 53 | 225 | 0.0 | 0.0 | 0.00 | 0.00 | 0.00 | 83 | 969.3 |
| 20260504100110 | 53 | 225 | 0.0 | 0.0 | 0.00 | 0.00 | 0.00 | 83 | 969.1 |
| 20260504081709 | 54 | 225 | 0.0 | 0.0 | 0.00 | 0.00 | 0.00 | 82 | 970.3 |
| 20260504080656 | 54 | 225 | 0.0 | 0.0 | 0.00 | 0.00 | 0.00 | 82 | 970.3 |
| 20260504050506 | 54 | 199 | 0.0 | 0.0 | 0.00 | 0.00 | 0.00 | 85 | 969.9 |
| 20260504045520 | 54 | 199 | 0.0 | 0.0 | 0.00 | 0.00 | 0.00 | 85 | 969.9 |
| 20260504044504 | 54 | 199 | 0.0 | 0.0 | 0.00 | 0.00 | 0.00 | 84 | 969.9 |
| 20260504043501 | 54 | 199 | 0.0 | 0.0 | 0.00 | 0.00 | 0.00 | 83 | 969.6 |
| 20260504042525 | 54 | 199 | 0.0 | 0.0 | 0.00 | 0.00 | 0.00 | 82 | 969.7 |
| 20260504041527 | 54 | 199 | 0.0 | 0.0 | 0.00 | 0.00 | 0.00 | 81 | 969.7 |
| 20260504035402 | 55 | 199 | 0.0 | 0.0 | 0.00 | 0.00 | 0.00 | 79 | 969.3 |
| 20260504034408 | 55 | 199 | 1.0 | 4.0 | 0.00 | 0.00 | 0.00 | 79 | 969.0 |
| 20260504033335 | 55 | 232 | 0.0 | 0.0 | 0.00 | 0.00 | 0.00 | 78 | 969.2 |
| 20260504030044 | 55 | 242 | 0.0 | 5.0 | 0.00 | 0.00 | 0.00 | 77 | 968.6 |
| 20260504023837 | 56 | 185 | 0.0 | 6.0 | 0.00 | 0.00 | 0.00 | 76 | 968.5 |
| 20260504021747 | 56 | 221 | 0.0 | 1.0 | 0.00 | 0.00 | 0.00 | 73 | 968.3 |
| 20260504020806 | 56 | 236 | 1.0 | 5.0 | 0.00 | 0.00 | 0.00 | 71 | 968.1 |
| 20260504015807 | 56 | 197 | 0.0 | 2.0 | 0.00 | 0.00 | 0.00 | 69 | 968.2 |
| 20260504014755 | 56 | 218 | 1.0 | 0.0 | 0.00 | 0.00 | 0.00 | 68 | 968.0 |
| 20260504013818 | 57 | 216 | 1.0 | 5.0 | 0.00 | 0.00 | 0.00 | 67 | 968.1 |
| 20260504012745 | 57 | 237 | 1.0 | 5.0 | 0.00 | 0.00 | 0.00 | 68 | 968.1 |
| 20260504011714 | 57 | 215 | 1.0 | 4.0 | 0.00 | 0.00 | 0.00 | 66 | 968.2 |
| 20260504010649 | 58 | 218 | 1.0 | 5.0 | 0.00 | 0.00 | 0.00 | 67 | 968.1 |
| 20260504005633 | 58 | 176 | 1.0 | 5.0 | 0.00 | 0.00 | 0.00 | 66 | 968.0 |
| 20260504004644 | 59 | 193 | 1.0 | 4.0 | 0.00 | 0.00 | 0.00 | 65 | 968.0 |